Ryuhomaru — JD2639 — position and weather

sailwx.info

Track history (hours):
 
Tides and Currents Weather Stations Pressure Air Temp Water Temp Dewpoint Dewpoint Depression Visibility Wind Speed Wind Dir Waves Ship Positions

Ryuhomaru

Last reported at 2014-Oct-24 07:06 UTC. Time now 2014-Oct-25 14:38 UTC.
Position N 34°33' E 135°27'.

Length 42 m; draft 3.5 m.

Type: Tug. MMSI: 431000586.

Date/timePositionNaut miles runAvg speedWind from/ knotsBaromVisibWave heightAir tempDewpointWater temp
2014-Oct-24 07:06N 34°33' E 135°27'3 4.9
2014-Oct-24 06:34N 34°33' E 135°23'4 4.1
2014-Oct-24 05:31N 34°29' E 135°20'7 6.7
2014-Oct-24 04:33N 34°33' E 135°27'0 0.1
2014-Oct-24 02:16N 34°33' E 135°27'0 0.0
2014-Oct-24 01:30N 34°33' E 135°27'0 0.0
2014-Oct-24 00:32N 34°33' E 135°27'1 0.4
2014-Oct-23 23:11N 34°34' E 135°26'4 4.5
2014-Oct-23 22:18N 34°33' E 135°21'2 3.1
2014-Oct-23 21:33N 34°34' E 135°19'7 5.7
2014-Oct-23 20:24N 34°33' E 135°27'0 0.0
2014-Oct-23 19:32N 34°33' E 135°27'0 0.0
2014-Oct-23 07:33N 34°33' E 135°27'6 6.2
2014-Oct-23 06:33N 34°39' E 135°24'8 2.7
2014-Oct-23 03:33N 34°31' E 135°24'0 0.0
2014-Oct-23 01:27N 34°31' E 135°24'2 2.5
2014-Oct-23 00:33N 34°33' E 135°24'2 2.4
2014-Oct-22 23:34N 34°33' E 135°27'0 0.0
2014-Oct-22 05:30N 34°33' E 135°27'1 1.3
2014-Oct-22 04:23N 34°33' E 135°25'0 0.1
2014-Oct-22 03:19N 34°33' E 135°25'0 0.1
2014-Oct-22 02:32N 34°33' E 135°25'0 0.1
2014-Oct-22 01:33N 34°33' E 135°25'0 0.1
2014-Oct-22 00:28N 34°33' E 135°25'0 0.0
2014-Oct-21 23:28N 34°33' E 135°25'0 0.1
2014-Oct-21 22:30N 34°33' E 135°25'0 0.1
2014-Oct-21 21:29N 34°33' E 135°25'0 0.1
2014-Oct-21 20:30N 34°33' E 135°25'0 0.0
2014-Oct-21 19:11N 34°33' E 135°25'0 0.1
2014-Oct-21 18:20N 34°33' E 135°25'0 0.1
2014-Oct-21 17:22N 34°33' E 135°25'0 0.0
2014-Oct-21 16:33N 34°33' E 135°25'0 0.1
2014-Oct-21 15:32N 34°33' E 135°25'0 0.0
2014-Oct-21 14:13N 34°33' E 135°25'0 0.1
2014-Oct-21 13:33N 34°33' E 135°25'0 0.0
2014-Oct-21 12:27N 34°33' E 135°25'0 0.0
2014-Oct-21 11:33N 34°33' E 135°25'0 0.1
2014-Oct-21 10:31N 34°33' E 135°25'0 0.0
2014-Oct-21 09:13N 34°33' E 135°25'0 0.0
2014-Oct-21 08:33N 34°33' E 135°25'0 0.1
2014-Oct-21 07:28N 34°33' E 135°25'0 0.1
2014-Oct-21 06:30N 34°33' E 135°25'0 0.1
2014-Oct-21 04:15N 34°33' E 135°25'3 3.4
2014-Oct-21 03:28N 34°33' E 135°22'3 3.3
2014-Oct-21 02:29N 34°33' E 135°26'1 0.6
2014-Oct-21 01:32N 34°33' E 135°27'0 0.0
2014-Oct-21 00:32N 34°33' E 135°27'0 0.0
2014-Oct-20 23:27N 34°33' E 135°27'0 0.0
2014-Oct-20 22:33N 34°33' E 135°27'0 0.0
2014-Oct-20 07:04N 34°33' E 135°27'0 0.0
2014-Oct-20 06:33N 34°33' E 135°27'0 0.0
2014-Oct-20 05:29N 34°33' E 135°27'0 0.0
2014-Oct-20 04:33N 34°33' E 135°27'0 0.0
2014-Oct-20 03:33N 34°33' E 135°27'0 0.0
2014-Oct-20 02:33N 34°33' E 135°27'0 0.0
2014-Oct-20 01:31N 34°33' E 135°27'1 0.6
2014-Oct-20 00:29N 34°33' E 135°26'2 1.7
2014-Oct-19 23:32N 34°33' E 135°24'5 4.6
2014-Oct-19 22:33N 34°34' E 135°18'7 6.5
2014-Oct-19 21:32N 34°33' E 135°27'0 0.0
2014-Oct-19 20:33N 34°33' E 135°27'0 0.0
2014-Oct-19 04:27N 34°33' E 135°27'1 1.3
2014-Oct-19 03:33N 34°33' E 135°25'1 0.5
2014-Oct-19 01:33N 34°33' E 135°24'2 2.5
2014-Oct-19 00:33N 34°33' E 135°21'5 4.5
2014-Oct-18 23:33N 34°33' E 135°27'0 0.0
2014-Oct-18 04:33N 34°33' E 135°27'1 1.0
2014-Oct-18 03:29N 34°33' E 135°25'4 4.3
2014-Oct-18 02:29N 34°34' E 135°20'0 0.2
2014-Oct-18 01:33N 34°34' E 135°21'4 3.0
2014-Oct-18 00:16N 34°33' E 135°25'1 1.8
2014-Oct-17 23:32N 34°33' E 135°27'3 2.5
2014-Oct-17 22:33N 34°32' E 135°24'2 1.6
2014-Oct-17 21:33N 34°33' E 135°23'3 2.8
2014-Oct-17 20:33N 34°33' E 135°27'1 0.1
2014-Oct-17 06:33N 34°33' E 135°25'3 2.7
2014-Oct-17 05:32N 34°31' E 135°23'3 3.4
2014-Oct-17 04:33N 34°33' E 135°27'0 0.0
2014-Oct-17 03:32N 34°33' E 135°27'0 0.0
2014-Oct-17 02:33N 34°33' E 135°27'0 0.0
2014-Oct-17 01:33N 34°33' E 135°27'1 1.1
2014-Oct-17 00:33N 34°33' E 135°25'0 0.1
2014-Oct-16 23:12N 34°33' E 135°25'1 1.4
2014-Oct-16 22:29N 34°33' E 135°27'2 0.1
2014-Oct-16 07:33N 34°33' E 135°25'1 0.6
2014-Oct-16 06:31N 34°34' E 135°24'0 0.1
2014-Oct-16 05:31N 34°34' E 135°24'0 0.1
2014-Oct-16 04:32N 34°34' E 135°24'0 0.1
2014-Oct-16 03:29N 34°34' E 135°24'0 0.2
2014-Oct-16 02:29N 34°34' E 135°24'0 0.0
2014-Oct-16 01:30N 34°34' E 135°24'0 0.0
2014-Oct-16 00:33N 34°34' E 135°24'0 0.1
2014-Oct-15 23:33N 34°34' E 135°24'0 0.1
2014-Oct-15 22:33N 34°34' E 135°24'0 0.1
2014-Oct-15 21:33N 34°34' E 135°24'0 0.0
2014-Oct-15 20:33N 34°34' E 135°24'0 0.1
2014-Oct-15 19:32N 34°34' E 135°24'0 0.2
2014-Oct-15 18:33N 34°34' E 135°24'0 0.1
2014-Oct-15 17:33N 34°34' E 135°24'0 0.1
2014-Oct-15 16:33N 34°34' E 135°24'0 0.0
2014-Oct-15 15:33N 34°34' E 135°24'0 0.1
2014-Oct-15 14:33N 34°34' E 135°24'0 0.1
2014-Oct-15 13:33N 34°34' E 135°24'0 0.0
2014-Oct-15 12:32N 34°34' E 135°24'0 0.1
2014-Oct-15 11:33N 34°34' E 135°24'0 0.0
2014-Oct-15 10:33N 34°34' E 135°24'0 0.1
2014-Oct-15 09:30N 34°34' E 135°24'0 0.0
2014-Oct-15 08:33N 34°34' E 135°24'0 0.1
2014-Oct-15 07:33N 34°34' E 135°24'0 0.1
2014-Oct-15 06:32N 34°34' E 135°24'0 0.1
2014-Oct-15 05:33N 34°34' E 135°24'0 0.0
2014-Oct-15 04:33N 34°34' E 135°24'0 0.1
2014-Oct-15 03:33N 34°34' E 135°24'0 0.1
2014-Oct-15 02:30N 34°34' E 135°24'0 0.1
2014-Oct-15 01:33N 34°34' E 135°24'0 0.1
2014-Oct-15 00:32N 34°34' E 135°24'0 0.2
2014-Oct-14 23:28N 34°34' E 135°24'0 0.2
2014-Oct-14 22:30N 34°34' E 135°24'6 6.7
2014-Oct-14 21:33N 34°32' E 135°17'8 8.2
2014-Oct-14 20:33N 34°33' E 135°27'0 0.0
2014-Oct-14 07:34N 34°33' E 135°27'  
Track history (hours):
 
Tides and Currents Weather Stations Pressure Air Temp Water Temp Dewpoint Dewpoint Depression Visibility Wind Speed Wind Dir Waves Ship Positions

Ryuhomaru

Last reported at 2014-Oct-24 07:06 UTC. Time now 2014-Oct-25 14:38 UTC.
Position N 34°33' E 135°27'.

Length 42 m; draft 3.5 m.

Type: Tug. MMSI: 431000586.

Date/timePositionNaut miles runAvg speedWind from/ knotsBaromVisibWave heightAir tempDewpointWater temp
2014-Oct-24 07:06N 34°33' E 135°27'3 4.9
2014-Oct-24 06:34N 34°33' E 135°23'4 4.1
2014-Oct-24 05:31N 34°29' E 135°20'7 6.7
2014-Oct-24 04:33N 34°33' E 135°27'0 0.1
2014-Oct-24 02:16N 34°33' E 135°27'0 0.0
2014-Oct-24 01:30N 34°33' E 135°27'0 0.0
2014-Oct-24 00:32N 34°33' E 135°27'1 0.4
2014-Oct-23 23:11N 34°34' E 135°26'4 4.5
2014-Oct-23 22:18N 34°33' E 135°21'2 3.1
2014-Oct-23 21:33N 34°34' E 135°19'7 5.7
2014-Oct-23 20:24N 34°33' E 135°27'0 0.0
2014-Oct-23 19:32N 34°33' E 135°27'0 0.0
2014-Oct-23 07:33N 34°33' E 135°27'6 6.2
2014-Oct-23 06:33N 34°39' E 135°24'8 2.7
2014-Oct-23 03:33N 34°31' E 135°24'0 0.0
2014-Oct-23 01:27N 34°31' E 135°24'2 2.5
2014-Oct-23 00:33N 34°33' E 135°24'2 2.4
2014-Oct-22 23:34N 34°33' E 135°27'0 0.0
2014-Oct-22 05:30N 34°33' E 135°27'1 1.3
2014-Oct-22 04:23N 34°33' E 135°25'0 0.1
2014-Oct-22 03:19N 34°33' E 135°25'0 0.1
2014-Oct-22 02:32N 34°33' E 135°25'0 0.1
2014-Oct-22 01:33N 34°33' E 135°25'0 0.1
2014-Oct-22 00:28N 34°33' E 135°25'0 0.0
2014-Oct-21 23:28N 34°33' E 135°25'0 0.1
2014-Oct-21 22:30N 34°33' E 135°25'0 0.1
2014-Oct-21 21:29N 34°33' E 135°25'0 0.1
2014-Oct-21 20:30N 34°33' E 135°25'0 0.0
2014-Oct-21 19:11N 34°33' E 135°25'0 0.1
2014-Oct-21 18:20N 34°33' E 135°25'0 0.1
2014-Oct-21 17:22N 34°33' E 135°25'0 0.0
2014-Oct-21 16:33N 34°33' E 135°25'0 0.1
2014-Oct-21 15:32N 34°33' E 135°25'0 0.0
2014-Oct-21 14:13N 34°33' E 135°25'0 0.1
2014-Oct-21 13:33N 34°33' E 135°25'0 0.0
2014-Oct-21 12:27N 34°33' E 135°25'0 0.0
2014-Oct-21 11:33N 34°33' E 135°25'0 0.1
2014-Oct-21 10:31N 34°33' E 135°25'0 0.0
2014-Oct-21 09:13N 34°33' E 135°25'0 0.0
2014-Oct-21 08:33N 34°33' E 135°25'0 0.1
2014-Oct-21 07:28N 34°33' E 135°25'0 0.1
2014-Oct-21 06:30N 34°33' E 135°25'0 0.1
2014-Oct-21 04:15N 34°33' E 135°25'3 3.4
2014-Oct-21 03:28N 34°33' E 135°22'3 3.3
2014-Oct-21 02:29N 34°33' E 135°26'1 0.6
2014-Oct-21 01:32N 34°33' E 135°27'0 0.0
2014-Oct-21 00:32N 34°33' E 135°27'0 0.0
2014-Oct-20 23:27N 34°33' E 135°27'0 0.0
2014-Oct-20 22:33N 34°33' E 135°27'0 0.0
2014-Oct-20 07:04N 34°33' E 135°27'0 0.0
2014-Oct-20 06:33N 34°33' E 135°27'0 0.0
2014-Oct-20 05:29N 34°33' E 135°27'0 0.0
2014-Oct-20 04:33N 34°33' E 135°27'0 0.0
2014-Oct-20 03:33N 34°33' E 135°27'0 0.0
2014-Oct-20 02:33N 34°33' E 135°27'0 0.0
2014-Oct-20 01:31N 34°33' E 135°27'1 0.6
2014-Oct-20 00:29N 34°33' E 135°26'2 1.7
2014-Oct-19 23:32N 34°33' E 135°24'5 4.6
2014-Oct-19 22:33N 34°34' E 135°18'7 6.5
2014-Oct-19 21:32N 34°33' E 135°27'0 0.0
2014-Oct-19 20:33N 34°33' E 135°27'0 0.0
2014-Oct-19 04:27N 34°33' E 135°27'1 1.3
2014-Oct-19 03:33N 34°33' E 135°25'1 0.5
2014-Oct-19 01:33N 34°33' E 135°24'2 2.5
2014-Oct-19 00:33N 34°33' E 135°21'5 4.5
2014-Oct-18 23:33N 34°33' E 135°27'0 0.0
2014-Oct-18 04:33N 34°33' E 135°27'1 1.0
2014-Oct-18 03:29N 34°33' E 135°25'4 4.3
2014-Oct-18 02:29N 34°34' E 135°20'0 0.2
2014-Oct-18 01:33N 34°34' E 135°21'4 3.0
2014-Oct-18 00:16N 34°33' E 135°25'1 1.8
2014-Oct-17 23:32N 34°33' E 135°27'3 2.5
2014-Oct-17 22:33N 34°32' E 135°24'2 1.6
2014-Oct-17 21:33N 34°33' E 135°23'3 2.8
2014-Oct-17 20:33N 34°33' E 135°27'1 0.1
2014-Oct-17 06:33N 34°33' E 135°25'3 2.7
2014-Oct-17 05:32N 34°31' E 135°23'3 3.4
2014-Oct-17 04:33N 34°33' E 135°27'0 0.0
2014-Oct-17 03:32N 34°33' E 135°27'0 0.0
2014-Oct-17 02:33N 34°33' E 135°27'0 0.0
2014-Oct-17 01:33N 34°33' E 135°27'1 1.1
2014-Oct-17 00:33N 34°33' E 135°25'0 0.1
2014-Oct-16 23:12N 34°33' E 135°25'1 1.4
2014-Oct-16 22:29N 34°33' E 135°27'2 0.1
2014-Oct-16 07:33N 34°33' E 135°25'1 0.6
2014-Oct-16 06:31N 34°34' E 135°24'0 0.1
2014-Oct-16 05:31N 34°34' E 135°24'0 0.1
2014-Oct-16 04:32N 34°34' E 135°24'0 0.1
2014-Oct-16 03:29N 34°34' E 135°24'0 0.2
2014-Oct-16 02:29N 34°34' E 135°24'0 0.0
2014-Oct-16 01:30N 34°34' E 135°24'0 0.0
2014-Oct-16 00:33N 34°34' E 135°24'0 0.1
2014-Oct-15 23:33N 34°34' E 135°24'0 0.1
2014-Oct-15 22:33N 34°34' E 135°24'0 0.1
2014-Oct-15 21:33N 34°34' E 135°24'0 0.0
2014-Oct-15 20:33N 34°34' E 135°24'0 0.1
2014-Oct-15 19:32N 34°34' E 135°24'0 0.2
2014-Oct-15 18:33N 34°34' E 135°24'0 0.1
2014-Oct-15 17:33N 34°34' E 135°24'0 0.1
2014-Oct-15 16:33N 34°34' E 135°24'0 0.0
2014-Oct-15 15:33N 34°34' E 135°24'0 0.1
2014-Oct-15 14:33N 34°34' E 135°24'0 0.1
2014-Oct-15 13:33N 34°34' E 135°24'0 0.0
2014-Oct-15 12:32N 34°34' E 135°24'0 0.1
2014-Oct-15 11:33N 34°34' E 135°24'0 0.0
2014-Oct-15 10:33N 34°34' E 135°24'0 0.1
2014-Oct-15 09:30N 34°34' E 135°24'0 0.0
2014-Oct-15 08:33N 34°34' E 135°24'0 0.1
2014-Oct-15 07:33N 34°34' E 135°24'0 0.1
2014-Oct-15 06:32N 34°34' E 135°24'0 0.1
2014-Oct-15 05:33N 34°34' E 135°24'0 0.0
2014-Oct-15 04:33N 34°34' E 135°24'0 0.1
2014-Oct-15 03:33N 34°34' E 135°24'0 0.1
2014-Oct-15 02:30N 34°34' E 135°24'0 0.1
2014-Oct-15 01:33N 34°34' E 135°24'0 0.1
2014-Oct-15 00:32N 34°34' E 135°24'0 0.2
2014-Oct-14 23:28N 34°34' E 135°24'0 0.2
2014-Oct-14 22:30N 34°34' E 135°24'6 6.7
2014-Oct-14 21:33N 34°32' E 135°17'8 8.2
2014-Oct-14 20:33N 34°33' E 135°27'0 0.0
2014-Oct-14 07:34N 34°33' E 135°27'  

Dump ship's entire track history